Wind_Speed
56 55 53 51 50 49 48 48 47 46 46 45 45 44 44 42 41 40 39 39 37 37 36 36 35 35 34 34 34 34 35 35 35 36 36 36 36 37 38 38 38 39 39
56 55 54 53 51 50 49 49 48 47 47 47 47 47 46 45 44 43 43 42 40 40 39 38 38 38 37 37 37 37 37 37 37 38 38 37 37 38 39 40 40 41 41
55 55 54 53 53 52 51 50 49 48 48 49 48 48 48 47 47 46 45 44 43 43 42 41 41 40 40 39 39 39 39 39 39 40 40 40 39 39 38 39 40 41 41
54 55 55 54 52 52 53 52 51 50 50 51 51 50 49 49 49 48 47 47 46 45 45 44 43 43 42 42 41 41 41 41 41 41 41 42 42 42 41 39 39 40 41
52 54 55 55 54 53 52 52 52 52 51 51 52 51 51 51 51 50 49 49 48 47 47 47 46 45 44 43 42 42 43 42 42 42 42 42 43 43 43 41 41 41 41
50 52 54 55 54 53 53 53 53 53 52 52 52 52 52 52 52 52 52 51 50 49 49 48 47 46 46 45 44 44 44 44 43 43 44 44 43 43 43 43 42 41 41
47 49 50 52 52 52 52 52 53 53 52 52 52 52 53 53 53 52 53 52 52 51 50 49 49 48 47 46 46 46 45 45 45 45 45 44 44 43 43 42 42 41 41
44 45 46 48 49 50 51 52 51 52 52 52 52 52 53 53 54 53 53 52 52 51 51 50 49 49 48 48 48 47 47 46 46 45 45 44 43 43 43 42 42 41 41
41 43 44 46 48 49 50 51 51 51 51 51 52 52 53 53 53 53 53 53 52 51 51 50 50 50 50 49 49 48 47 46 45 45 44 43 43 42 42 42 42 42 41
39 41 42 44 46 47 49 50 50 51 51 51 52 52 52 53 53 53 52 52 52 52 51 51 50 50 49 48 48 48 47 47 46 45 44 43 42 42 42 42 42 41 41
37 38 39 41 43 44 45 47 48 49 50 51 51 52 52 53 53 53 53 52 51 51 51 51 50 49 49 49 49 48 47 46 46 44 43 42 42 42 42 42 41 41 40
34 35 36 38 40 42 43 44 45 47 48 49 50 51 51 52 52 52 52 51 51 51 51 51 50 50 49 49 48 47 46 45 44 43 42 41 41 41 41 41 40 39 39
32 33 34 35 37 39 41 42 44 45 47 48 48 49 49 50 51 51 51 50 50 50 50 50 49 49 48 47 47 46 45 44 43 42 41 40 40 40 39 39 38 38 38
31 32 33 33 34 36 38 39 41 42 44 45 46 47 47 47 48 49 49 49 49 49 49 48 47 47 46 46 44 44 43 43 42 41 40 39 39 38 38 37 37 37 36
30 31 32 33 33 34 35 37 38 40 41 42 43 44 44 44 44 45 45 45 46 46 46 46 45 44 44 44 43 42 41 41 40 39 39 39 38 37 37 36 36 35 35
29 29 30 31 32 32 33 34 35 37 38 39 40 41 42 42 42 42 43 43 43 43 42 41 41 41 42 41 41 40 40 39 39 39 38 37 36 36 36 35 34 34 34
28 28 29 29 30 31 31 32 33 34 35 37 38 39 39 40 40 41 41 41 41 40 40 40 39 39 39 38 38 38 38 38 38 37 37 36 35 35 35 34 34 34 34
28 29 29 29 30 30 31 32 32 33 34 35 36 37 37 38 39 39 39 39 39 39 39 39 39 38 38 38 38 38 37 37 36 36 35 35 35 34 33 33 33 33 34
28 29 29 29 29 29 30 31 32 32 33 34 34 35 36 36 37 38 38 38 38 38 37 37 37 37 37 37 37 36 36 35 35 35 34 34 33 33 33 33 33 33 33
27 28 28 28 28 29 29 30 30 31 31 32 32 33 33 34 35 36 36 37 37 37 36 36 35 35 35 35 35 35 35 34 34 34 33 33 32 32 33 33 33 33 33
27 27 27 27 28 28 29 29 30 30 31 31 31 32 32 33 33 34 35 35 35 35 35 35 35 35 34 34 34 33 33 33 32 32 32 32 32 32 32 32 32 33 33
26 26 27 27 28 28 28 28 29 29 29 29 30 30 30 31 31 31 32 32 32 32 33 33 33 32 32 32 32 31 31 31 31 31 31 31 31 32 32 32 32 33 33
25 25 26 26 27 27 27 28 27 27 28 28 29 29 29 29 30 30 30 30 30 31 31 32 32 32 31 31 31 31 30 30 30 30 31 31 31 31 31 32 33 34 34
24 24 25 25 25 25 26 26 26 26 27 27 28 28 28 29 29 30 30 30 30 29 30 30 30 30 30 30 30 30 30 30 30 31 31 31 31 31 32 33 34 34 35
23 23 24 24 24 24 25 25 26 26 26 26 27 27 27 27 27 28 28 28 29 29 29 29 29 29 29 29 29 29 30 30 30 31 31 31 31 32 33 34 35 35 36
22 23 23 23 23 24 25 25 26 26 26 26 26 26 26 26 27 27 27 28 28 28 28 28 28 29 29 29 29 30 30 31 31 31 31 32 32 33 34 35 36 36 37
Wind_Direction
226 227 228 229 229 231 233 235 235 236 238 239 240 242 243 246 248 250 254 256 260 263 266 268 271 273 276 278 280 282 284 286 288 291 293 294 295 297 297 298 299 300 300
226 228 229 230 231 232 234 235 237 238 240 240 241 242 243 246 249 251 254 256 259 263 265 268 270 272 275 277 279 281 283 285 287 290 291 292 293 295 297 298 299 299 299
226 227 229 231 232 233 235 237 238 239 241 241 243 243 245 247 249 251 253 256 258 261 264 267 269 272 274 276 278 280 282 284 286 288 290 290 291 292 294 295 296 296 296
227 228 229 231 232 234 235 237 239 241 242 242 244 244 246 247 249 251 253 255 258 261 263 266 268 271 273 275 277 279 281 283 285 286 288 290 291 292 292 293 293 293 294
228 229 230 231 232 234 236 238 240 242 243 244 245 246 248 248 250 251 253 255 258 261 264 266 267 269 271 273 276 278 280 281 283 286 287 289 290 291 292 293 293 293 293
228 229 230 232 233 234 236 239 241 242 244 245 246 247 248 249 251 252 253 255 258 261 263 264 266 267 269 271 274 276 278 281 283 285 287 288 289 290 291 292 293 292 293
229 229 230 231 233 235 237 239 241 243 245 246 248 249 250 251 252 253 254 256 257 259 261 262 263 266 268 270 272 275 277 280 282 284 285 287 288 289 290 291 292 292 293
232 232 232 233 235 236 237 239 241 243 245 247 249 250 251 252 253 254 255 256 257 259 260 261 263 265 267 269 271 274 277 279 281 283 285 286 287 288 289 290 291 292 292
232 233 234 234 236 237 239 241 242 244 246 247 248 250 251 252 253 255 256 257 258 259 260 262 264 265 267 269 271 274 277 279 281 282 283 284 285 287 288 288 290 291 292
234 234 234 235 237 238 240 242 244 246 247 249 250 251 252 254 254 255 257 258 259 260 261 263 264 266 268 270 271 274 276 278 280 281 282 283 284 285 287 288 289 290 291
235 236 236 237 237 239 241 242 244 246 247 248 250 252 253 254 255 256 257 259 259 260 261 263 264 266 268 270 272 274 276 277 279 279 281 281 282 284 286 287 289 290 290
236 237 239 240 240 241 243 244 246 247 248 249 251 252 253 254 255 256 258 259 260 261 262 263 265 267 268 270 272 273 274 276 277 278 279 280 282 284 285 286 287 288 289
237 239 240 242 243 244 245 246 248 249 250 251 251 253 254 254 256 257 258 260 261 262 263 264 266 267 268 269 270 271 273 274 275 276 278 279 282 283 284 286 286 287 288
238 240 242 243 245 246 247 248 249 250 251 252 253 254 254 255 256 257 258 260 261 262 263 265 266 267 268 268 269 270 272 273 274 276 277 279 281 283 284 285 285 287 288
241 243 244 246 247 248 249 250 251 252 253 254 254 255 256 257 258 259 259 261 261 262 263 265 266 267 267 267 268 269 270 272 274 275 277 279 280 281 282 283 285 286 288
243 245 247 249 250 251 251 252 253 254 255 255 256 256 256 257 259 260 260 261 262 263 264 264 265 266 266 267 267 268 269 271 273 274 276 278 279 280 282 283 285 286 288
246 248 250 251 252 253 253 254 255 256 256 256 257 257 257 258 259 259 260 260 261 262 262 263 264 265 265 265 266 267 269 270 272 273 275 276 277 279 281 283 284 286 288
247 249 250 252 253 254 255 255 255 256 257 257 258 258 258 258 259 259 260 260 260 261 261 262 262 263 264 264 265 266 268 269 270 272 274 276 277 278 281 283 284 286 287
247 249 251 253 254 255 256 256 256 256 257 258 259 259 260 260 260 259 260 260 261 261 261 261 262 262 263 263 264 265 267 268 269 271 273 275 276 278 281 283 284 286 287
249 250 252 253 254 255 255 255 255 256 258 258 259 260 260 260 260 260 260 261 261 260 260 260 261 261 262 262 264 265 266 267 268 270 271 274 276 279 280 283 284 286 287
249 250 252 253 254 255 255 255 256 257 258 259 260 260 261 261 261 261 260 260 260 259 259 260 260 260 261 261 262 263 264 265 267 269 271 274 276 278 281 283 285 286 288
249 250 251 252 254 255 255 255 256 257 258 259 260 260 261 261 261 261 260 258 258 258 258 259 258 258 259 260 261 262 264 266 268 270 272 274 277 279 281 284 286 287 289
248 249 249 251 253 254 255 256 256 257 258 259 260 260 261 262 261 262 261 259 259 259 258 258 258 258 258 259 260 262 265 267 268 270 272 274 277 279 282 285 287 289 290
247 249 249 250 252 253 254 255 256 258 259 260 261 262 262 263 262 262 261 260 260 259 258 257 257 257 258 259 260 262 264 267 269 270 272 274 276 280 283 286 288 290 292
248 249 250 250 252 253 255 255 256 258 259 261 262 263 262 263 263 262 261 259 259 258 258 257 257 258 258 260 261 263 266 268 269 271 273 275 277 281 284 287 289 291 292
249 250 250 251 253 254 255 256 257 259 260 261 262 262 262 263 263 263 261 259 259 259 259 258 258 259 260 261 263 265 266 268 269 271 273 276 279 282 285 288 290 292 293
Height
5772 5778 5784 5790 5796 5801 5806 5810 5814 5818 5821 5824 5827 5829 5832 5834 5836 5838 5840 5841 5842 5843 5844 5844 5844 5844 5844 5843 5843 5842 5841 5839 5837 5836 5834 5832 5829 5826 5823 5820 5817 5814 5811
5764 5770 5776 5782 5788 5793 5798 5802 5806 5810 5813 5816 5819 5821 5824 5826 5828 5830 5832 5833 5835 5836 5836 5837 5837 5837 5837 5836 5835 5834 5833 5832 5830 5828 5826 5825 5824 5820 5816 5812 5809 5806 5802
5756 5762 5768 5774 5780 5785 5790 5794 5797 5801 5805 5808 5810 5813 5815 5818 5820 5822 5824 5825 5827 5828 5828 5829 5829 5829 5829 5828 5828 5827 5826 5824 5823 5820 5818 5817 5815 5813 5810 5806 5802 5798 5794
5747 5753 5759 5765 5771 5776 5780 5785 5789 5792 5796 5799 5802 5804 5807 5809 5811 5813 5815 5816 5817 5819 5820 5820 5821 5821 5820 5820 5819 5818 5817 5816 5815 5813 5810 5808 5805 5803 5802 5799 5795 5790 5787
5738 5744 5750 5756 5761 5766 5771 5775 5779 5783 5787 5790 5793 5795 5798 5800 5802 5803 5805 5807 5808 5809 5810 5811 5811 5812 5811 5811 5811 5810 5808 5807 5806 5804 5802 5799 5797 5794 5791 5790 5787 5783 5779
5729 5735 5740 5746 5751 5756 5761 5765 5769 5773 5777 5780 5783 5786 5788 5790 5792 5794 5795 5797 5799 5800 5801 5801 5802 5802 5802 5802 5801 5800 5799 5798 5796 5795 5793 5790 5788 5785 5782 5780 5777 5774 5770
5721 5726 5731 5736 5742 5747 5751 5755 5759 5763 5767 5770 5773 5776 5778 5780 5782 5784 5786 5787 5789 5790 5791 5791 5792 5792 5792 5792 5792 5791 5790 5788 5787 5785 5783 5781 5778 5776 5773 5770 5767 5764 5761
5713 5718 5723 5727 5732 5737 5741 5745 5749 5753 5756 5759 5762 5765 5768 5770 5772 5774 5775 5777 5778 5779 5780 5781 5782 5782 5782 5782 5781 5781 5780 5778 5777 5775 5773 5771 5769 5766 5763 5761 5758 5755 5752
5705 5710 5714 5719 5723 5728 5732 5736 5740 5743 5746 5749 5752 5754 5757 5759 5761 5763 5764 5766 5768 5769 5769 5770 5771 5771 5771 5771 5771 5770 5770 5768 5767 5765 5763 5761 5759 5756 5754 5751 5748 5745 5742
5697 5702 5706 5710 5715 5719 5723 5726 5730 5733 5736 5739 5742 5744 5746 5748 5750 5752 5754 5755 5756 5758 5758 5759 5760 5760 5760 5760 5760 5760 5759 5758 5756 5755 5753 5751 5749 5746 5744 5741 5738 5735 5732
5690 5694 5698 5702 5706 5710 5714 5717 5720 5723 5726 5728 5731 5733 5735 5737 5739 5741 5742 5744 5745 5746 5747 5748 5749 5749 5749 5749 5749 5749 5748 5747 5746 5744 5742 5741 5739 5737 5734 5731 5728 5725 5722
5683 5687 5690 5694 5697 5701 5704 5707 5710 5713 5715 5718 5720 5722 5724 5726 5728 5730 5731 5732 5734 5735 5736 5737 5737 5738 5738 5738 5738 5737 5737 5736 5735 5734 5732 5730 5728 5726 5724 5721 5719 5716 5713
5676 5680 5683 5686 5689 5692 5695 5698 5700 5703 5705 5707 5709 5711 5713 5715 5716 5718 5720 5721 5722 5723 5724 5725 5726 5726 5726 5727 5726 5726 5726 5725 5724 5723 5722 5720 5718 5716 5714 5711 5709 5706 5704
5669 5672 5675 5678 5681 5683 5686 5688 5691 5693 5695 5697 5699 5700 5702 5704 5705 5706 5708 5709 5711 5712 5713 5713 5714 5715 5715 5715 5715 5715 5715 5714 5714 5713 5711 5710 5708 5706 5704 5702 5699 5697 5694
5663 5665 5668 5671 5673 5675 5677 5679 5681 5683 5685 5687 5688 5690 5691 5693 5694 5696 5697 5698 5699 5700 5701 5702 5703 5703 5704 5704 5704 5704 5704 5704 5703 5702 5701 5700 5698 5696 5694 5692 5690 5688 5685
5656 5658 5661 5663 5665 5667 5669 5670 5672 5673 5675 5677 5678 5680 5681 5682 5684 5685 5686 5687 5688 5689 5690 5691 5692 5692 5693 5693 5693 5693 5694 5693 5693 5692 5691 5690 5688 5686 5685 5683 5681 5679 5676
5649 5651 5653 5655 5657 5658 5660 5662 5663 5664 5666 5667 5668 5670 5671 5672 5673 5674 5675 5676 5677 5678 5679 5680 5681 5682 5682 5682 5683 5683 5683 5683 5683 5682 5681 5680 5678 5677 5675 5673 5671 5669 5667
5642 5644 5646 5647 5649 5650 5652 5653 5654 5655 5657 5658 5659 5660 5661 5662 5663 5664 5665 5666 5667 5668 5669 5669 5670 5671 5672 5672 5672 5673 5673 5673 5672 5672 5671 5670 5669 5667 5666 5664 5662 5660 5658
5634 5636 5638 5640 5641 5642 5643 5645 5646 5647 5648 5649 5650 5650 5651 5652 5653 5654 5655 5656 5656 5657 5658 5659 5660 5661 5661 5662 5662 5662 5663 5663 5662 5662 5661 5661 5659 5658 5657 5655 5653 5651 5649
5627 5629 5630 5632 5633 5634 5635 5636 5637 5638 5639 5640 5641 5641 5642 5642 5643 5644 5645 5646 5646 5647 5648 5649 5650 5650 5651 5652 5652 5652 5653 5653 5653 5652 5652 5651 5650 5649 5647 5646 5644 5642 5640
5620 5621 5623 5624 5625 5626 5627 5628 5629 5630 5631 5632 5632 5632 5633 5633 5634 5634 5635 5636 5637 5638 5638 5639 5640 5641 5642 5642 5643 5643 5643 5643 5643 5643 5642 5642 5641 5640 5638 5637 5635 5633 5630
5612 5614 5615 5616 5617 5619 5620 5620 5621 5622 5623 5623 5624 5624 5624 5625 5625 5625 5626 5627 5627 5628 5629 5630 5631 5631 5632 5633 5633 5634 5634 5634 5634 5634 5633 5633 5632 5630 5629 5627 5625 5623 5621
5605 5606 5607 5609 5610 5611 5612 5613 5613 5614 5615 5615 5615 5616 5616 5616 5617 5617 5617 5618 5619 5619 5620 5621 5622 5623 5623 5624 5624 5625 5625 5625 5625 5625 5624 5624 5622 5621 5620 5618 5616 5614 5611
5598 5599 5600 5601 5602 5603 5604 5605 5606 5606 5607 5607 5608 5608 5608 5608 5608 5609 5609 5610 5610 5611 5611 5612 5613 5614 5615 5615 5615 5616 5616 5616 5616 5616 5615 5614 5613 5612 5611 5609 5606 5604 5601
5591 5592 5593 5594 5595 5596 5597 5598 5598 5599 5599 5600 5600 5600 5600 5600 5601 5601 5601 5602 5602 5603 5603 5604 5605 5605 5606 5607 5607 5607 5607 5607 5607 5607 5606 5605 5604 5603 5601 5599 5596 5594 5591
5584 5585 5586 5587 5588 5589 5590 5590 5591 5591 5592 5592 5592 5592 5592 5593 5593 5593 5593 5594 5594 5595 5595 5596 5597 5597 5598 5598 5598 5598 5598 5598 5598 5598 5597 5596 5595 5593 5591 5589 5586 5583 5580